Location: Sudbury
(46.5221°N, 80.9530°W)
Time: 04:00:28
(UTC-05:00)

ISS - Pass Details

Date: 30 September 2023
Orbit: 416 x 417 km, 51.6° (Epoch: 01 December)

Event Time Altitude Azimuth Distance (km) Brightness Sun altitude
Rises 20:08:24 0° 295° (WNW) 2,372 1.7 -11.6°
Reaches altitude 10° 20:10:31 10° 293° (WNW) 1,500 0.4 -11.9°
Maximum altitude 20:13:51 65° 211° (SSW) 462 -3.5 -12.5°
Enters shadow 20:16:06 19° 132° (SE) 1,068 -2.2 -12.9°
